{"data":{"norad_id":67880,"epoch":"2026-05-24T18:29:27.827808Z","epoch_age_seconds":94857,"freshness":"FRESH","line1":"1 67880U 26035B   26144.77046097  .00028311  00000+0  87557-3 0  9991","line2":"2 67880  97.2858  78.2398 0002031  93.4909 266.6566 15.33458339 15644","mean_motion":15.33458339,"eccentricity":0.0002031,"inclination_deg":97.2858,"raan_deg":78.2398,"arg_perigee_deg":93.4909,"mean_anomaly_deg":266.6566,"bstar":0.00087557,"rev_number":1564,"period_min":93.905387800692,"perigee_km":464.11354390364,"apogee_km":466.89343066957,"semimajor_km":6843.6404872866,"source":"CELESTRAK","updated_at":"2026-05-25T13:38:21.731672Z"}}